Weather History for Palm Springs, CA

Change the Weather History Date:

Thursday, April 26, 2012

  Actual Average Record
Temperature  
Mean Temperature 71 °F 74 °F  
Max Temperature 81 °F 87 °F 109 °F (1996)
Min Temperature 61 °F 60 °F 42 °F (1971)
Degree Days  
Heating Degree Days 0 0  
Month to date heating degree days 16 17  
Since 1 July heating degree days 771 868  
Cooling Degree Days 6 9  
Month to date cooling degree days 231 162  
Year to date cooling degree days 352 282  
Growing Degree Days 20 (Base 50)    
Moisture  
Dew Point 48 °F    
Average Humidity 53    
Maximum Humidity 78    
Minimum Humidity 28    
Precipitation  
Precipitation 0.10 in 0.00 in 0.45 in (1931)
Month to date precipitation 0.20 0.10  
Year to date precipitation 0.79 2.74  
Since 1 July precipitation 2.27 5.54  
Snow  
Snow 0.00 in - - ()
Month to date snowfall 0.0  
Year to date snowfall 0.0  
Since 1 July snowfall 0.0  
Snow Depth 0.00 in    
Sea Level Pressure  
Sea Level Pressure 29.85 in    
Wind  
Wind Speed 8 mph (North)    
Max Wind Speed 24 mph    
Max Gust Speed 33 mph    
Visibility 10 miles    
Events Rain    
T = Trace of Precipitation, MM = Missing Value Source: NWS Daily Summary

Daily Weather History Graph

Daily Weather History Graph

Search for Another Location

Airport:

Trip Planner

Search our weather history database for the weather conditions in past years. The results will help you decide how hot, cold, wet, or windy it might be!

Date:

Astronomy

Apr. 26, 2012 Rise Set
Actual Time 6:01 AM PDT 7:26 PM PDT
Civil Twilight 5:35 AM PDT 7:52 PM PDT
Nautical Twilight 5:04 AM PDT 8:24 PM PDT
Astronomical Twilight 4:31 AM PDT 8:57 PM PDT
Moon 9:51 AM PDT (4/26) No Moon Set
Length of Visible Light 14h 17m
Length of Day
13h 24m
Waxing Crescent, 25% of the Moon is Illuminated
Apr 26
Waxing Crescent
Apr 29
First Quarter
May 5
Full
May 12
Last Quarter
May 20
New

Hourly Weather History & Observations

Time (PDT) Temp. Dew Point Humidity Pressure Visibility Wind Dir Wind Speed Gust Speed Precip Events Conditions
12:53 AM 70.0 °F 48.0 °F 46% 29.76 in 10.0 mi Variable 4.6 mph 23.0 mph 0.00 in   Overcast
1:53 AM 66.9 °F 48.9 °F 52% 29.76 in 10.0 mi NW 12.7 mph 21.9 mph 0.00 in Rain Light Rain
2:53 AM 63.0 °F 53.1 °F 70% 29.76 in 10.0 mi NNW 16.1 mph 28.8 mph 0.05 in Rain Light Rain
3:53 AM 64.0 °F 52.0 °F 65% 29.76 in 10.0 mi North 13.8 mph - 0.03 in   Overcast
4:00 AM 64.4 °F 51.8 °F 64% 29.77 in 10.0 mi North 8.1 mph - 0.00 in Rain Light Rain
4:53 AM 61.0 °F 54.0 °F 78% 29.75 in 10.0 mi South 8.1 mph - 0.02 in   Partly Cloudy
5:53 AM 63.0 °F 53.1 °F 70% 29.78 in 10.0 mi Calm Calm - N/A   Overcast
6:53 AM 62.1 °F 52.0 °F 70% 29.80 in 10.0 mi East 15.0 mph - N/A   Scattered Clouds
7:02 AM 62.6 °F 51.8 °F 68% 29.82 in 10.0 mi ENE 5.8 mph - N/A   Scattered Clouds
7:53 AM 64.9 °F 50.0 °F 58% 29.84 in 10.0 mi SSW 5.8 mph - N/A   Clear
8:53 AM 68.0 °F 48.0 °F 49% 29.86 in 10.0 mi North 5.8 mph - N/A   Clear
9:53 AM 69.1 °F 46.0 °F 44% 29.88 in 10.0 mi Calm Calm - N/A   Clear
10:53 AM 73.0 °F 46.0 °F 38% 29.90 in 10.0 mi Variable 3.5 mph - N/A   Scattered Clouds
11:53 AM 73.9 °F 44.1 °F 34% 29.89 in 10.0 mi SE 6.9 mph - N/A   Clear
12:53 PM 78.1 °F 43.0 °F 29% 29.89 in 10.0 mi SSE 8.1 mph 18.4 mph N/A   Scattered Clouds
1:53 PM 78.1 °F 44.1 °F 30% 29.88 in 10.0 mi North 10.4 mph 19.6 mph N/A   Scattered Clouds
2:53 PM 78.1 °F 43.0 °F 29% 29.89 in 10.0 mi Variable 5.8 mph - N/A   Scattered Clouds
3:16 PM 78.8 °F 42.8 °F 28% 29.89 in 10.0 mi SSE 11.5 mph - N/A   Scattered Clouds
3:53 PM 78.1 °F 43.0 °F 29% 29.88 in 10.0 mi East 8.1 mph - N/A   Clear
4:53 PM 78.1 °F 45.0 °F 31% 29.88 in 10.0 mi NW 21.9 mph 33.4 mph N/A   Partly Cloudy
5:53 PM 77.0 °F 44.1 °F 31% 29.89 in 10.0 mi WNW 10.4 mph 21.9 mph N/A   Partly Cloudy
6:53 PM 73.0 °F 46.9 °F 39% 29.88 in 10.0 mi NW 17.3 mph 25.3 mph N/A   Scattered Clouds
7:53 PM 72.0 °F 46.9 °F 41% 29.88 in 10.0 mi NW 13.8 mph - N/A   Clear
8:53 PM 71.6 °F 46.4 °F 41% 29.90 in 10.0 mi NW 18.4 mph 24.2 mph N/A   Partly Cloudy
9:53 PM 70.0 °F 45.0 °F 41% 29.91 in 10.0 mi WSW 4.6 mph - N/A   Clear
10:53 PM 68.0 °F 48.0 °F 49% 29.92 in 10.0 mi ESE 5.8 mph - N/A   Clear
11:53 PM 66.9 °F 48.9 °F 52% 29.93 in 10.0 mi NE 4.6 mph - N/A   Clear